EN

Hourly Weather Novozavolzhskiy

Today, 16 May, Sunday

Time Temperature Precipitation Wind Pressure Humidity
00:00 +21°C° 0 mm 4 mps 755 mmHg 46%
01:00 +21°C° 0 mm 4 mps 755 mmHg 46%
02:00 +20°C° 0 mm 3 mps 755 mmHg 45%
03:00 +20°C° 0 mm 3 mps 755 mmHg 45%
04:00 +21°C° 0 mm 3 mps 755 mmHg 47%
05:00 +21°C° 0 mm 3 mps 755 mmHg 48%
06:00 +22°C° 0 mm 3 mps 755 mmHg 49%
07:00 +25°C° 0 mm 4 mps 755 mmHg 44%
08:00 +27°C° 0 mm 4 mps 756 mmHg 39%
09:00 +29°C° 0 mm 5 mps 756 mmHg 34%
10:00 +30°C° 0 mm 5 mps 755 mmHg 31%
11:00 +33°C° 0 mm 5 mps 755 mmHg 28%
12:00 +34°C° 0 mm 6 mps 755 mmHg 26%
13:00 +34°C° 0 mm 5 mps 755 mmHg 25%
14:00 +34°C° 0 mm 5 mps 755 mmHg 23%
15:00 +34°C° 0 mm 5 mps 755 mmHg 22%
16:00 +33°C° 0 mm 4 mps 754 mmHg 26%
17:00 +31°C° 0 mm 3 mps 754 mmHg 30%
18:00 +30°C° 0 mm 2 mps 754 mmHg 35%
19:00 +28°C° 0 mm 3 mps 754 mmHg 37%
20:00 +26°C° 0 mm 4 mps 754 mmHg 40%
21:00 +23°C° 0 mm 5 mps 754 mmHg 42%
22:00 +22°C° 0 mm 5 mps 754 mmHg 44%
23:00 +22°C° 0 mm 5 mps 754 mmHg 46%

Tomorrow, 17 May, Monday

Time Temperature Precipitation Wind Pressure Humidity
00:00 +21°C° 0 mm 4 mps 754 mmHg 48%
01:00 +21°C° 0 mm 4 mps 754 mmHg 49%
02:00 +21°C° 0 mm 4 mps 755 mmHg 50%
03:00 +21°C° 0 mm 3 mps 755 mmHg 51%
04:00 +21°C° 0 mm 3 mps 755 mmHg 51%
05:00 +22°C° 0 mm 4 mps 755 mmHg 52%
06:00 +22°C° 0 mm 4 mps 755 mmHg 53%
07:00 +25°C° 0 mm 4 mps 755 mmHg 46%
08:00 +27°C° 0 mm 4 mps 755 mmHg 39%
09:00 +29°C° 0 mm 4 mps 755 mmHg 32%
10:00 +30°C° 0 mm 4 mps 755 mmHg 29%
11:00 +32°C° 0 mm 4 mps 755 mmHg 25%
12:00 +33°C° 0 mm 4 mps 755 mmHg 22%
13:00 +33°C° 0 mm 4 mps 755 mmHg 21%
14:00 +33°C° 0 mm 5 mps 755 mmHg 21%
15:00 +33°C° 0 mm 5 mps 755 mmHg 20%
16:00 +32°C° 0 mm 4 mps 754 mmHg 25%
17:00 +30°C° 0 mm 3 mps 754 mmHg 29%
18:00 +29°C° 0 mm 3 mps 754 mmHg 34%
19:00 +27°C° 0 mm 3 mps 754 mmHg 34%
20:00 +26°C° 0 mm 3 mps 754 mmHg 33%
21:00 +24°C° 0 mm 2 mps 754 mmHg 33%
22:00 +24°C° 0 mm 3 mps 754 mmHg 32%
23:00 +24°C° 0 mm 3 mps 754 mmHg 31%

Day after tomorrow, 18 May, Tuesday

Time Temperature Precipitation Wind Pressure Humidity
00:00 +22°C° 0 mm 3 mps 754 mmHg 31%
01:00 +22°C° 0 mm 3 mps 754 mmHg 33%
02:00 +21°C° 0 mm 4 mps 754 mmHg 35%
03:00 +20°C° 0 mm 4 mps 754 mmHg 37%
04:00 +21°C° 0 mm 4 mps 754 mmHg 39%
05:00 +21°C° 0 mm 4 mps 754 mmHg 41%
06:00 +22°C° 0 mm 4 mps 754 mmHg 43%
07:00 +25°C° 0 mm 5 mps 754 mmHg 38%
08:00 +27°C° 0 mm 5 mps 754 mmHg 33%
09:00 +30°C° 0 mm 5 mps 754 mmHg 27%
10:00 +32°C° 0 mm 5 mps 754 mmHg 25%
11:00 +33°C° 0 mm 5 mps 754 mmHg 23%
12:00 +34°C° 0 mm 5 mps 754 mmHg 21%
13:00 +34°C° 0 mm 4 mps 753 mmHg 20%
14:00 +34°C° 0 mm 4 mps 753 mmHg 18%
15:00 +35°C° 0 mm 3 mps 753 mmHg 17%
16:00 +34°C° 0 mm 3 mps 753 mmHg 21%
17:00 +31°C° 0 mm 2 mps 753 mmHg 25%
18:00 +30°C° 0 mm 2 mps 752 mmHg 29%
19:00 +29°C° 0 mm 3 mps 752 mmHg 30%
20:00 +27°C° 0 mm 3 mps 752 mmHg 31%
21:00 +25°C° 0 mm 3 mps 752 mmHg 32%
22:00 +23°C° 0 mm 4 mps 752 mmHg 33%
23:00 +23°C° 0 mm 4 mps 752 mmHg 33%

19 May, Wednesday

Time Temperature Precipitation Wind Pressure Humidity
00:00 +22°C° 0 mm 4 mps 752 mmHg 34%
01:00 +22°C° 0 mm 4 mps 752 mmHg 38%
02:00 +21°C° 0 mm 4 mps 752 mmHg 42%
03:00 +21°C° 0 mm 4 mps 752 mmHg 46%
04:00 +21°C° 0 mm 4 mps 752 mmHg 48%
05:00 +22°C° 0 mm 4 mps 752 mmHg 50%
06:00 +22°C° 0 mm 4 mps 752 mmHg 52%
07:00 +25°C° 0 mm 5 mps 752 mmHg 46%
08:00 +27°C° 0 mm 5 mps 752 mmHg 40%
09:00 +29°C° 0 mm 5 mps 752 mmHg 34%
10:00 +32°C° 0 mm 5 mps 752 mmHg 31%
11:00 +33°C° 0 mm 6 mps 752 mmHg 27%
12:00 +34°C° 0 mm 6 mps 752 mmHg 24%
13:00 +34°C° 0 mm 5 mps 752 mmHg 23%
14:00 +34°C° 0 mm 5 mps 752 mmHg 22%
15:00 +35°C° 0 mm 5 mps 752 mmHg 21%
16:00 +33°C° 0 mm 5 mps 751 mmHg 26%
17:00 +32°C° 0 mm 4 mps 751 mmHg 30%
18:00 +30°C° 0 mm 4 mps 751 mmHg 35%
19:00 +28°C° 0 mm 4 mps 752 mmHg 41%
20:00 +26°C° 0 mm 4 mps 752 mmHg 48%
21:00 +23°C° 0 mm 4 mps 752 mmHg 54%
22:00 +22°C° 0 mm 5 mps 752 mmHg 56%
23:00 +22°C° 0 mm 6 mps 752 mmHg 57%

20 May, Thursday

Time Temperature Precipitation Wind Pressure Humidity
00:00 +22°C° 0 mm 7 mps 752 mmHg 58%
01:00 +21°C° 0 mm 7 mps 752 mmHg 60%
02:00 +21°C° 0 mm 7 mps 752 mmHg 61%
03:00 +20°C° 0 mm 7 mps 752 mmHg 63%
04:00 +21°C° 0 mm 7 mps 753 mmHg 63%
05:00 +21°C° 0 mm 8 mps 753 mmHg 62%
06:00 +21°C° 0 mm 9 mps 753 mmHg 62%
07:00 +23°C° 0 mm 9 mps 753 mmHg 58%
08:00 +24°C° 0 mm 9 mps 753 mmHg 54%
09:00 +27°C° 0 mm 10 mps 754 mmHg 49%
10:00 +28°C° 0 mm 9 mps 754 mmHg 47%
11:00 +28°C° 0 mm 9 mps 754 mmHg 44%
12:00 +29°C° 0 mm 9 mps 754 mmHg 42%
13:00 +31°C° 0 mm 8 mps 754 mmHg 40%
14:00 +31°C° 0 mm 8 mps 754 mmHg 39%
15:00 +32°C° 0 mm 7 mps 754 mmHg 38%
16:00 +30°C° 0 mm 7 mps 754 mmHg 40%
17:00 +29°C° 0 mm 6 mps 754 mmHg 43%
18:00 +28°C° 0 mm 6 mps 753 mmHg 45%
19:00 +27°C° 0.3 mm 5 mps 754 mmHg 52%
20:00 +25°C° 0.3 mm 3 mps 754 mmHg 58%
21:00 +23°C° 0.3 mm 2 mps 754 mmHg 65%
22:00 +23°C° 0.1 mm 2 mps 754 mmHg 65%
23:00 +21°C° 0.1 mm 3 mps 754 mmHg 65%

21 May, Friday

Time Temperature Precipitation Wind Pressure Humidity
00:00 +21°C° 0.1 mm 3 mps 754 mmHg 65%
01:00 +20°C° 0.1 mm 3 mps 754 mmHg 61%
02:00 +19°C° 0.1 mm 4 mps 754 mmHg 57%
03:00 +19°C° 0.1 mm 4 mps 754 mmHg 53%
04:00 +19°C° 0 mm 5 mps 754 mmHg 50%
05:00 +20°C° 0 mm 5 mps 755 mmHg 47%
06:00 +20°C° 0 mm 6 mps 755 mmHg 44%
07:00 +22°C° 0 mm 7 mps 755 mmHg 41%
08:00 +24°C° 0 mm 7 mps 755 mmHg 39%
09:00 +27°C° 0 mm 8 mps 755 mmHg 36%
10:00 +28°C° 0 mm 8 mps 755 mmHg 34%
11:00 +29°C° 0 mm 9 mps 755 mmHg 32%
12:00 +32°C° 0 mm 9 mps 755 mmHg 30%
13:00 +32°C° 0 mm 8 mps 755 mmHg 29%
14:00 +32°C° 0 mm 8 mps 755 mmHg 28%
15:00 +32°C° 0 mm 8 mps 755 mmHg 27%
16:00 +30°C° 0 mm 7 mps 755 mmHg 29%
17:00 +29°C° 0 mm 6 mps 755 mmHg 30%
18:00 +28°C° 0 mm 5 mps 754 mmHg 32%
19:00 +26°C° 0 mm 5 mps 755 mmHg 34%
20:00 +23°C° 0 mm 5 mps 755 mmHg 36%
21:00 +22°C° 0 mm 5 mps 755 mmHg 38%
22:00 +21°C° 0 mm 5 mps 755 mmHg 37%
23:00 +21°C° 0 mm 5 mps 754 mmHg 37%
Show more

We Need Your Consent

Meteoprog and our Service Providers may store and access personal data such as cookies, device identifiers or other similar technologies on your device and process such data to personalise content and ads, as well as provide social media features and to analyse the traffic.

  • Store and/or access information on your device

    Cookies, device identifiers or other information can be stored or accessed on your device for the purposes indicated above.

  • Personalised ads and content, ad and content measurement, audience insights, and products development

    Ads and content can be personalised based on a profile. More data can be added to better personalise ads and content. Ad and content performance can be measured. Insights about the audience who saw the ads and content can be derived. Such data can be used to develop or improve user’s experience, systems and software.

By clicking ‘I Agree’ you will allow the use of indicated cookies, device identifiers, web beacons or other similar technologies. Your settings can be changed in the browser on your device.

For certain purposes, legitimate interests may be relied on, rather than consent. You can read more about this in our Privacy and Cookie Policy.